sat.trackr.live / text

‹ back to catalog

OCO 2

NORAD 40059 · 2014-035A

PAYLOAD ACTIVE UNKNOWN

§ Identity

Operator
Country
US
Launch date
2014-07-02
Launch site
AFWTR
Launch vehicle
Mass (kg)
RCS (m²)
1.15

Purposes: science

External: N2YO · Heavens-Above · Gunter

§ Orbital elements

Epoch: 2026-09-13T02:53:37.870080Z

Period
98.83 min
Inclination
98.2064°
Eccentricity
0.0001667
Mean motion
14.57088595 rev/d
Perigee alt
701.4 km
Apogee alt
703.8 km
Semi-major
7,080.7 km
B*
6.9517e-5
RAAN
196.0911°
Arg perigee
79.6846°
Mean anomaly
280.4540°
Rev number
64,885

§ Raw data

OCO 21 40059U 14035A   26256.12057720  .00000268  00000+0  69517-4 0  99932 40059  98.2064 196.0911 0001667  79.6846 280.4540 14.57088595648852

JSON: /api/v1/satellites/40059 · /tle

For live sub-satellite position, see the globe view (requires WebGL).

§ Visibility from observer

Set your observer location to see the next 7 days of passes ≥ 10°. The values pass through the URL so the page stays shareable.

No JS? Fill the form by hand. The geolocation button needs JavaScript.